COSMOS 2501 (702K)

Last updated on Mon Jun 22 2026 00:03:26 GMT+0000 (Coordinated Universal Time)

1 40315U 14075A 26172.05477182 .00000072 00000+0 00000+0 0 9999 2 40315 63.6166 190.2381 0022628 212.5574 147.3441 2.13101228 89936
UTC large
Height (km)
Speed (km/s)
/
Latitude / Longitude
Inclination (degrees)
Orbital Period (minutes)
Azimuth
Elevation
Range (km)
Doppler Factor

Next 0 passes for location: London (51.5072 / 0.1276)

No passes found over London.
COSMOS 2501 (702K)